sat.trackr.live / text

‹ back to catalog

STARLINK-30362

NORAD 57745 · 2023-131P

PAYLOAD ACTIVE UNKNOWN

§ Identity

Operator
Country
US
Launch date
2023-09-01
Launch site
AFETR
Launch vehicle
Mass (kg)
RCS (m²)

Purposes: comms

External: N2YO · Heavens-Above · Gunter

§ Orbital elements

Epoch: 2026-09-20T02:18:26.000064Z

Period
94.27 min
Inclination
43.0053°
Eccentricity
0.0001475
Mean motion
15.27582138 rev/d
Perigee alt
482.0 km
Apogee alt
484.1 km
Semi-major
6,861.2 km
B*
3.8061e-5
RAAN
154.9504°
Arg perigee
262.7898°
Mean anomaly
97.2786°
Rev number
16,964

§ Raw data

STARLINK-303621 57745U 23131P   26263.09613426  .00000785  00000+0  38061-4 0  99992 57745  43.0053 154.9504 0001475 262.7898  97.2786 15.27582138169649

JSON: /api/v1/satellites/57745 · /tle

For live sub-satellite position, see the globe view (requires WebGL).

§ Visibility from observer

Set your observer location to see the next 7 days of passes ≥ 10°. The values pass through the URL so the page stays shareable.

No JS? Fill the form by hand. The geolocation button needs JavaScript.